Regional Weather Roundup
Issued by NWS

Home | Current Version | Previous Version | Graphics & Text | Print | Product List | Glossary On
Versions: 1 2 3 4 5 6 7 8 9 10 11 12 13 14 15 16 17 18 19 20 21 22 23 24 25 26 27 28 29 30 31 32 33 34 35 36 37 38 39 40 41 42 43 44 45 46 47 48 49 50
000
ASUS43 KLMK 270302
RWRKY
KENTUCKY REGIONAL WEATHER ROUNDUP
NATIONAL WEATHER SERVICE LOUISVILLE KY
1100 PM EDT THU APR 26 2018

NOTE "FAIR" INDICATES FEW OR NO CLOUDS BELOW 12,000 FEET
WITH NO SIGNIFICANT WEATHER AND/OR OBSTRUCTIONS TO VISIBILITY.

KYZ001>023-026-027-061>063-070>075-270400-
WESTERN AND SOUTH CENTRAL KENTUCKY

CITY           SKY/WX    TMP DP  RH WIND       PRES   REMARKS
PADUCAH        FAIR      54  44  69 W6        29.90R
HENDERSON      FAIR      50  45  83 CALM      29.89S
OWENSBORO      FAIR      54  41  61 CALM      29.88S
HOPKINSVILLE   FAIR      53  53 100 SW5       29.89S
BOWLING GREEN  FAIR      55  54  96 SW6       29.89S
GLASGOW        NOT AVBL
$$

KYZ024-025-028>034-038-045-046-053-270400-
NORTH CENTRAL KENTUCKY

CITY           SKY/WX    TMP DP  RH WIND       PRES   REMARKS
LOUISVILLE/SDF FAIR      61  30  31 CALM      29.85S
LOUISVILLE/LOU FAIR      56  34  43 CALM      29.85F
FORT KNOX      FAIR      56  35  45 NW5       29.86S
$$

KYZ035>037-039>044-047>052-055>060-089>105-270400-
NORTHEAST KENTUCKY

CITY           SKY/WX    TMP DP  RH WIND       PRES   REMARKS
LEXINGTON      FAIR      55  51  86 S6        29.87R
COVINGTON      FAIR      55  35  47 NW10      29.84S
FRANKFORT      FAIR      52  44  74 SW8       29.84S
$$

KYZ054-064>069-076>088-106>120-270400-
SOUTHEAST KENTUCKY

CITY           SKY/WX    TMP DP  RH WIND       PRES   REMARKS
JACKSON        LGT RAIN  51  49  92 CALM      29.88S
LONDON         CLOUDY    52  50  93 W3        29.88F
SOMERSET       NOT AVBL
MIDDLESBORO    DRIZZLE   51  51  99 CALM      29.88F
MONTICELLO     NOT AVBL
$$





USA.gov is the U.S. government's official web portal to all federal, state and local government web resources and services.